| time (UTC) | temp C | wind direction | speed KPH | gust KPH | rain 1hr cm | rain 24hr cm | rain mn cm | humidity % | barometer mb |
| 20260902091554 | 20 | 59 | 0.0 | 1.6 | 0.00 | 0.00 | 0.00 | 41 | 1019.6 |
| 20260902090051 | 20 | 53 | 0.0 | 3.2 | 0.00 | 0.00 | 0.00 | 41 | 1019.5 |
| 20260902084558 | 20 | 62 | 0.0 | 3.2 | 0.00 | 0.00 | 0.00 | 42 | 1019.4 |
| 20260902083055 | 19 | 34 | 1.6 | 3.2 | 0.00 | 0.00 | 0.00 | 42 | 1019.4 |
| 20260902081552 | 20 | 94 | 0.0 | 1.6 | 0.00 | 0.00 | 0.00 | 43 | 1019.5 |
| 20260902080057 | 18 | 0 | 0.0 | 1.6 | 0.00 | 0.00 | 0.00 | 44 | 1019.6 |
| 20260902074604 | 19 | 0 | 0.0 | 1.6 | 0.00 | 0.00 | 0.00 | 43 | 1019.5 |
| 20260902073103 | 20 | 85 | 0.0 | 1.6 | 0.00 | 0.00 | 0.00 | 41 | 1019.4 |
| 20260902071600 | 20 | 93 | 1.6 | 4.8 | 0.00 | 0.00 | 0.00 | 40 | 1019.5 |
| 20260902070100 | 20 | 0 | 0.0 | 3.2 | 0.00 | 0.00 | 0.00 | 42 | 1019.5 |
| 20260902064604 | 20 | 75 | 0.0 | 3.2 | 0.00 | 0.05 | 0.00 | 40 | 1019.4 |
| 20260902063110 | 20 | 80 | 1.6 | 6.4 | 0.00 | 0.05 | 0.00 | 41 | 1019.2 |
| 20260902061621 | 20 | 94 | 3.2 | 6.4 | 0.00 | 0.05 | 0.00 | 42 | 1019.1 |
| 20260902060058 | 20 | 96 | 1.6 | 4.8 | 0.00 | 0.05 | 0.00 | 43 | 1019.2 |
| 20260902054555 | 20 | 65 | 1.6 | 6.4 | 0.00 | 0.05 | 0.05 | 41 | 1019.3 |
| 20260902053047 | 20 | 87 | 1.6 | 6.4 | 0.00 | 0.05 | 0.05 | 42 | 1019.4 |
| 20260902051606 | 20 | 75 | 1.6 | 4.8 | 0.00 | 0.05 | 0.05 | 41 | 1019.4 |
| 20260902050056 | 21 | 103 | 1.6 | 8.0 | 0.00 | 0.05 | 0.05 | 40 | 1019.5 |
| 20260902044624 | 21 | 103 | 1.6 | 6.4 | 0.00 | 0.05 | 0.05 | 40 | 1019.5 |
| 20260902043058 | 21 | 88 | 1.6 | 4.8 | 0.00 | 0.05 | 0.05 | 41 | 1019.6 |
| 20260902041605 | 21 | 105 | 1.6 | 6.4 | 0.00 | 0.05 | 0.05 | 41 | 1019.8 |
| 20260902040054 | 21 | 89 | 1.6 | 8.0 | 0.00 | 0.05 | 0.05 | 43 | 1019.7 |
| 20260902034601 | 21 | 98 | 4.8 | 9.7 | 0.00 | 0.08 | 0.05 | 42 | 1019.8 |
| 20260902033058 | 22 | 107 | 3.2 | 6.4 | 0.00 | 0.08 | 0.05 | 38 | 1019.7 |
| 20260902031615 | 22 | 122 | 3.2 | 4.8 | 0.00 | 0.08 | 0.05 | 37 | 1019.6 |
| 20260902024600 | 22 | 135 | 0.0 | 3.2 | 0.00 | 0.43 | 0.05 | 37 | 1019.5 |
| 20260902023052 | 22 | 0 | 0.0 | 0.0 | 0.00 | 0.43 | 0.05 | 36 | 1019.2 |
| 20260902021553 | 23 | 0 | 0.0 | 6.4 | 0.00 | 0.43 | 0.05 | 35 | 1019.0 |
| 20260902020054 | 23 | 135 | 3.2 | 8.0 | 0.00 | 0.43 | 0.05 | 33 | 1018.8 |
| 20260902014555 | 24 | 136 | 6.4 | 14.5 | 0.00 | 0.56 | 0.05 | 32 | 1018.9 |
| 20260902013104 | 25 | 134 | 3.2 | 8.0 | 0.00 | 0.56 | 0.05 | 31 | 1018.9 |
| 20260902011551 | 25 | 129 | 6.4 | 14.5 | 0.00 | 0.56 | 0.05 | 31 | 1018.7 |
| 20260902010100 | 25 | 0 | 0.0 | 1.6 | 0.00 | 0.56 | 0.05 | 31 | 1018.7 |
| 20260902004556 | 26 | 154 | 0.0 | 3.2 | 0.00 | 0.56 | 0.05 | 30 | 1018.6 |
| 20260902003102 | 26 | 154 | 1.6 | 4.8 | 0.00 | 0.56 | 0.05 | 30 | 1018.6 |
| 20260902001603 | 26 | 155 | 4.8 | 9.7 | 0.00 | 0.56 | 0.05 | 28 | 1018.6 |
| 20260902000056 | 27 | 0 | 0.0 | 3.2 | 0.00 | 0.56 | 0.05 | 27 | 1018.6 |
| 20260901234609 | 27 | 202 | 0.0 | 6.4 | 0.00 | 0.56 | 0.05 | 28 | 1018.6 |
| 20260901233107 | 27 | 0 | 0.0 | 8.0 | 0.00 | 0.56 | 0.05 | 29 | 1018.4 |
| 20260901231602 | 27 | 131 | 1.6 | 9.7 | 0.00 | 0.56 | 0.05 | 28 | 1018.4 |
| 20260901230111 | 27 | 137 | 4.8 | 12.9 | 0.00 | 0.56 | 0.05 | 28 | 1018.6 |
| 20260901224600 | 27 | 124 | 8.0 | 14.5 | 0.00 | 0.56 | 0.05 | 29 | 1018.6 |
| 20260901223055 | 27 | 212 | 1.6 | 9.7 | 0.00 | 0.56 | 0.05 | 28 | 1018.6 |
| 20260901221607 | 27 | 109 | 8.0 | 16.1 | 0.00 | 0.56 | 0.05 | 30 | 1018.6 |
| 20260901220048 | 27 | 144 | 4.8 | 12.9 | 0.00 | 0.56 | 0.05 | 29 | 1018.8 |
| 20260901214555 | 26 | 200 | 4.8 | 11.3 | 0.00 | 0.56 | 0.05 | 30 | 1018.9 |
| 20260901213056 | 26 | 138 | 4.8 | 12.9 | 0.00 | 0.56 | 0.05 | 29 | 1018.9 |
| 20260901211551 | 27 | 127 | 1.6 | 6.4 | 0.00 | 0.56 | 0.05 | 29 | 1018.9 |
| 20260901210057 | 27 | 314 | 1.6 | 6.4 | 0.00 | 0.56 | 0.05 | 28 | 1019.0 |
| 20260901204553 | 27 | 0 | 0.0 | 6.4 | 0.00 | 0.56 | 0.05 | 28 | 1019.1 |
| 20260901203056 | 27 | 261 | 1.6 | 6.4 | 0.00 | 0.56 | 0.05 | 28 | 1019.3 |
| 20260901201557 | 28 | 275 | 1.6 | 4.8 | 0.00 | 0.56 | 0.05 | 27 | 1019.5 |
| 20260901200054 | 28 | 306 | 1.6 | 6.4 | 0.00 | 0.56 | 0.05 | 29 | 1019.6 |
| 20260901194600 | 28 | 209 | 1.6 | 11.3 | 0.00 | 0.56 | 0.05 | 27 | 1019.7 |
| 20260901193052 | 27 | 0 | 3.2 | 8.0 | 0.00 | 0.56 | 0.05 | 29 | 1019.8 |
| 20260901191553 | 27 | 259 | 1.6 | 6.4 | 0.00 | 0.56 | 0.05 | 30 | 1020.0 |
| 20260901190049 | 28 | 315 | 1.6 | 9.7 | 0.00 | 0.56 | 0.05 | 28 | 1019.9 |
| 20260901184602 | 27 | 319 | 3.2 | 8.0 | 0.00 | 0.56 | 0.05 | 31 | 1020.0 |
| 20260901183115 | 26 | 303 | 4.8 | 8.0 | 0.00 | 0.56 | 0.05 | 36 | 1020.2 |
| 20260901181552 | 26 | 319 | 3.2 | 6.4 | 0.00 | 0.56 | 0.05 | 36 | 1020.4 |
| 20260901180050 | 26 | 322 | 1.6 | 6.4 | 0.00 | 0.56 | 0.05 | 39 | 1020.7 |
| 20260901174555 | 25 | 307 | 1.6 | 6.4 | 0.00 | 0.56 | 0.05 | 42 | 1021.1 |
| 20260901173124 | 25 | 318 | 3.2 | 6.4 | 0.00 | 0.56 | 0.05 | 42 | 1021.2 |
| 20260901171602 | 25 | 346 | 1.6 | 6.4 | 0.00 | 0.56 | 0.05 | 43 | 1021.3 |
| 20260901164557 | 25 | 313 | 1.6 | 4.8 | 0.00 | 0.56 | 0.05 | 41 | 1021.4 |
| 20260901163108 | 23 | 313 | 1.6 | 3.2 | 0.00 | 0.56 | 0.05 | 45 | 1021.5 |
| 20260901161605 | 22 | 313 | 1.6 | 4.8 | 0.00 | 0.56 | 0.05 | 53 | 1021.4 |
| 20260901160056 | 21 | 313 | 1.6 | 3.2 | 0.00 | 0.56 | 0.05 | 54 | 1021.5 |
| 20260901154558 | 19 | 313 | 1.6 | 8.0 | 0.00 | 0.56 | 0.05 | 64 | 1021.4 |
| 20260901153056 | 18 | 122 | 0.0 | 4.8 | 0.00 | 0.56 | 0.05 | 66 | 1021.5 |
| 20260901151558 | 18 | 0 | 0.0 | 6.4 | 0.00 | 0.56 | 0.05 | 63 | 1021.5 |
| 20260901150059 | 17 | 0 | 0.0 | 4.8 | 0.00 | 0.56 | 0.05 | 67 | 1021.4 |
| 20260901144556 | 17 | 338 | 3.2 | 6.4 | 0.00 | 0.56 | 0.05 | 67 | 1021.5 |
| 20260901143105 | 17 | 0 | 0.0 | 1.6 | 0.00 | 0.56 | 0.05 | 66 | 1021.4 |
| 20260901141552 | 17 | 0 | 0.0 | 1.6 | 0.00 | 0.56 | 0.05 | 68 | 1021.5 |
| 20260901140047 | 16 | 0 | 0.0 | 1.6 | 0.00 | 0.56 | 0.05 | 69 | 1021.4 |
| 20260901134557 | -17 | 0.0 | 0.0 | 0.00 | 0.56 | 0.05 | 1021.2 | ||
| 20260901133057 | -17 | 0.0 | 0.0 | 0.00 | 0.56 | 0.05 | 1021.2 | ||
| 20260901131557 | -17 | 0.0 | 0.0 | 0.00 | 0.56 | 0.05 | 1021.0 | ||
| 20260901130106 | -17 | 0.0 | 0.0 | 0.00 | 0.56 | 0.05 | 1020.4 | ||
| 20260901124555 | -17 | 0.0 | 0.0 | 0.00 | 0.56 | 0.05 | 1020.2 | ||
| 20260901123101 | -17 | 0.0 | 0.0 | 0.00 | 0.56 | 0.05 | 1020.1 | ||
| 20260901121603 | -17 | 0.0 | 0.0 | 0.00 | 0.56 | 0.05 | 1019.8 | ||
| 20260901120107 | -17 | 0.0 | 0.0 | 0.00 | 0.56 | 0.05 | 1020.0 | ||
| 20260901114555 | -17 | 0.0 | 0.0 | 0.00 | 0.56 | 0.05 | 1020.1 | ||
| 20260901113059 | -17 | 0.0 | 0.0 | 0.00 | 0.56 | 0.05 | 1020.0 | ||
| 20260901111559 | 16 | 0.0 | 0.0 | 0.00 | 0.56 | 0.05 | 74 | 1020.1 | |
| 20260901110055 | 15 | 213 | 1.6 | 4.8 | 0.00 | 0.56 | 0.05 | 76 | 1020.3 |
| 20260901104602 | 15 | 0 | 0.0 | 3.2 | 0.00 | 0.56 | 0.05 | 100 | 1020.3 |
| 20260901103100 | 15 | 0 | 0.0 | 0.0 | 0.00 | 0.56 | 0.05 | 76 | 1020.4 |
| 20260901101606 | 15 | 0 | 0.0 | 1.6 | 0.00 | 0.56 | 0.05 | 75 | 1020.7 |
| 20260901100105 | 15 | 0 | 0.0 | 1.6 | 0.00 | 0.56 | 0.05 | 77 | 1020.9 |
| 20260901094549 | 15 | 84 | 0.0 | 1.6 | 0.00 | 0.56 | 0.05 | 81 | 1021.4 |
| 20260901093058 | 15 | 0 | 0.0 | 0.0 | 0.00 | 0.56 | 0.05 | 83 | 1021.4 |